Retour au catalogue

WEILI KONGJIAN 05-02

ActifNavigationLEO
NORAD 69583·PAYLOAD·🇨🇳 China
Ce nom de satellite n'a pas encore été confirmé par des sources officielles.

Lancé Jun 17, 2026 depuis Jiuquan Satellite Launch Center

Loading…

Prochains Passages (prochaines 24 heures)

TLE

FraisSource: Space-Track

Époque: Sep 14, 2026, 12:43 UTC

1 69583U 26138B   26257.53034844  .00000057  00000-0  12131-3 0  9997
2 69583  55.1416 311.7997 0006709 303.2948  56.7380 14.08169671 12660

Suivez WEILI KONGJIAN 05-02 en temps réel avec AllMySat

Download on the App Store